#timestamp,LO_Frequency,Hit,StdDev 
1556283615.8,286046998.1,N
1556283635.7,286046998.2,N
1556283655.5,286047000.8,N
1556283675.3,286047000.2,N
1556283695.2,286046999.7,N
1556283715.0,286047002.5,N
1556283715.9,286047002.5,N
1556283735.8,286047002.8,N
1556283755.6,286047000.3,N
1556283775.4,286047001.0,N
1556283795.3,286046998.2,N
1556283815.1,286046998.4,N
1556283835.8,286046999.4,N
1556283855.7,286046999.3,N
1556283875.5,286046999.4,N
1556283895.4,286046999.1,N
1556283915.2,286046999.2,N
1556283935.0,286046998.8,N
1556283935.9,286046998.8,N
1556283955.8,286046998.9,N
1556283975.6,286047000.0,N
1556283995.4,286047000.4,N
1556284015.3,286047000.9,N
1556284035.1,286047000.7,N
1556284055.9,286046999.0,N
1556284075.7,286046999.5,N
1556284095.5,286046996.6,N
1556284115.4,286046998.4,N
1556284135.2,286046998.9,N
1556284155.0,286046998.7,N
1556284155.9,286046998.7,N
1556284175.8,286046996.6,N
1556284195.6,286046996.7,N
1556284215.5,286046999.6,N
1556284235.3,286046999.4,N
1556284255.1,286046999.0,N
1556284275.9,286046998.9,N
1556284295.7,286046998.2,N
1556284315.5,286046998.3,N
1556284335.7,286046999.2,N
1556284355.5,286046999.1,N
1556284375.3,286047000.6,N
1556284395.2,286047000.8,N
1556284415.0,286046998.5,N
1556284415.9,286046998.5,N
1556284435.8,286046999.4,N
1556284455.6,286046999.5,N
1556284475.4,286046998.8,N
1556284495.3,286046998.6,N
1556284515.1,286046999.4,N
1556284535.9,286046997.0,N
1556284555.7,286046999.2,N
1556284575.5,286046997.8,N
1556284595.4,286046997.4,N
1556284615.2,286046997.6,N
1556284635.0,286046993.4,Y
1556284635.9,286046993.4,P
1556284655.8,286046995.3,N
1556284675.6,286046997.3,N
1556284695.5,286046995.3,N
1556284715.3,286046995.3,N
1556284735.1,286046995.6,N
1556284755.9,286046995.6,N
1556284775.7,286046995.6,Y
1556284795.5,286047000.7,P
1556284815.4,286047002.8,N
1556284835.2,286047001.1,N
1556284855.1,286046998.5,N
1556284856.0,286046998.5,N
1556284875.8,286047000.7,N
1556284895.6,286046998.4,N
1556284915.5,286046998.2,N
1556284935.3,286047000.1,N
1556284955.1,286046998.5,N
1556284975.9,286046998.4,N
1556284995.7,286047000.9,N
1556285015.6,286046998.2,N
1556285035.4,286046998.7,N
1556285055.2,286046999.5,N
1556285075.1,286046995.0,Y
1556285076.0,286046995.0,P
1556285095.8,286046999.1,N
1556285115.7,286046999.2,N
1556285135.5,286046999.6,N
1556285155.3,286046998.3,N
1556285175.2,286046998.6,N
1556285195.0,286046997.2,N
1556285195.9,286046997.2,N
1556285215.8,286046997.5,N
1556285235.6,286046997.7,N
1556285255.4,286046997.5,N
1556285275.3,286046998.8,N
1556285295.1,286046999.0,N
1556285315.8,286047000.5,N
1556285335.7,286047000.7,N
1556285355.5,286047000.2,N
1556285375.3,286047000.3,N
1556285395.2,286047001.0,N
1556285415.0,286046998.7,N
1556285415.9,286046998.7,N
1556285435.8,286046998.6,N
1556285455.6,286046997.6,N
1556285475.4,286046997.4,N
1556285495.3,286046999.5,N
1556285515.1,286046996.7,N
1556285535.9,286046999.1,N
1556285555.7,286046995.4,Y
1556285605.6,286047000.9,E
1556285615.5,286046998.2,N
1556285635.3,286047001.1,P
1556285655.1,286046999.9,N
1556285675.9,286046999.9,N
1556285695.7,286046999.7,N
1556285715.6,286047001.4,N
1556285735.4,286046999.8,N
1556285755.2,286047000.9,N
1556285775.1,286047002.8,N
1556285776.0,286047002.8,N
1556285795.8,286046999.8,N
1556285815.6,286047000.0,N
1556285835.5,286047000.6,N
1556285855.3,286047000.7,N
1556285875.2,286047000.0,N
1556285895.9,286046999.8,N
1556285915.7,286047000.0,N
1556285935.6,286047000.7,N
1556285955.4,286046998.6,N
1556285975.2,286047000.7,N
1556285995.1,286047000.6,N
1556285996.0,286047000.6,N
1556286015.8,286046999.7,N
1556286035.7,286046999.9,N
1556286055.5,286047000.2,N
1556286075.3,286046998.1,N
1556286095.2,286046998.4,N
1556286115.0,286046998.8,N
1556286115.9,286046998.8,N
1556286135.7,286046998.5,N
1556286155.6,286046998.5,N
1556286175.4,286047001.1,N
1556286195.3,286047001.1,N
1556286215.1,286047001.0,N
1556286235.8,286046999.9,N
1556286255.7,286047002.3,N
1556286275.4,286046999.7,N
1556286295.2,286046999.8,N
1556286315.1,286047000.1,N
1556286316.0,286047000.1,N
1556286335.8,286047000.0,N
1556286355.6,286047001.8,N
1556286375.5,286047003.7,Y
1556286395.3,286047004.0,P
1556286415.2,286047001.3,N
1556286435.9,286047000.2,N
1556286455.7,286047000.5,N
1556286475.6,286047002.4,N
1556286495.4,286047001.6,N
1556286515.3,286047003.2,N
1556286535.1,286047003.9,N
1556286536.0,286047003.9,N
1556286555.8,286047001.9,N
1556286575.7,286047000.3,N
1556286595.5,286046999.7,N
1556286615.3,286047002.7,N
1556286635.2,286047002.4,N
1556286655.0,286046999.8,N
1556286655.9,286046999.8,N
1556286705.8,286047000.0,E
1556286715.7,286047000.9,N
1556286735.5,286047000.4,P
1556286755.4,286046998.5,P
1556286775.2,286047000.8,N
1556286795.1,286046999.0,N
1556286796.0,286046999.0,N
1556286815.8,286047001.0,N
1556286835.6,286046998.5,N
1556286855.5,286047001.1,N
1556286875.3,286046999.0,N
1556286895.2,286046996.8,Y
1556286915.0,286046997.1,P
1556286915.9,286046997.1,N
1556286935.7,286046997.8,N
1556286955.6,286046997.0,N
1556286975.4,286047001.2,N
1556286995.3,286046998.5,N
1556287015.1,286046998.7,N
1556287035.8,286046998.5,N
1556287055.7,286046998.2,N
1556287075.5,286047001.2,N
1556287095.4,286047000.1,N
1556287115.2,286047002.2,N
1556287135.0,286047001.7,N
1556287135.9,286047001.7,N
1556287155.8,286047004.2,N
1556287175.6,286047001.6,N
1556287195.5,286046999.8,N
